Voltar ao catálogo

COSMOS 2251 DEB

LostLEO
NORAD 47072·DEBRIS·🇷🇺 Russia

Lançado Jun 16, 1993 de Plesetsk Cosmodrome

Loading…

Próximas Passagens (próximas 24 horas)

TLE

ObsoletoSource: Space-Track

Época: Feb 16, 2023, 16:08 UTC

1 47072U 93036BYC 23047.67290628  .00024971  00000-0  70945-2 0  9997
2 47072  74.0361  29.4338 0066837 343.6622  16.2379 14.43977219462690

Acompanhe COSMOS 2251 DEB em tempo real com AllMySat

Download on the App Store